Regional Weather Roundup
Issued by NWS

Home | Current Version | Previous Version | Text Only | Print | Product List | Glossary On
Versions: 1 2 3 4 5 6 7 8 9 10 11 12 13 14 15 16 17 18 19 20 21 22 23 24 25 26 27 28 29 30 31 32 33 34 35 36 37 38 39 40 41 42 43 44 45 46 47 48 49 50
000
ASUS44 KEWX 171402
RWRTX
SOUTH TEXAS REGIONAL WEATHER ROUNDUP
NATIONAL WEATHER SERVICE AUSTIN/SAN ANTONIO TX
900 AM CDT WED SEP 17 2014

NOTE: "FAIR" INDICATED FEW OR NO CLOUDS BELOW 12,000 FEET WITH NO
SIGNIFICANT WEATHER AND/OR OBSTRUCTIONS TO VISIBILITY.

* - THESE STATIONS ARE NOT NWS OR FAA STATIONS...AND ARE NOT SUBJECT
    TO NWS AND FAA QUALITY CONTROL.

TXZ171-172-183>190-171500-
TEXAS HILL COUNTRY AND EDWARDS PLATEAU

CITY           SKY/WX    TMP DP  RH WIND       PRES   REMARKS
JUNCTION       SUNNY     74  68  81 CALM      30.02R
*LLANO         PTSUNNY   77  73  88 SE5       30.02R
BURNET         PTSUNNY   75  72  90 CALM      30.02R
*HORSESHOE BAY PTSUNNY   75  75 100 CALM      30.00R FOG
*KERRVILLE     PTSUNNY   76  73  90 CALM      30.01S
*FREDERICKSBRG CLOUDY    73  72  95 CALM      30.01R FOG
*ROCKSPRINGS   PTSUNNY   73  70  88 SE6       30.06R
*BOERNE STAGE  PTSUNNY   75  72  88 S3        30.01S
*CASTROVILLE   DRIZZLE   79  76  90 E3        29.99R
HONDO          CLOUDY    79  75  87 E3        29.99R
*UVALDE        PTSUNNY   75  74  97 E3        29.98R
DEL RIO        CLOUDY    77  74  90 E7        29.96R
LAUGHLIN AFB   NOT AVBL
CARRIZO SPRGS  CLOUDY    75  75 100 CALM      29.95R FOG
$$

TXZ173-191>194-202-209-217>225-228-171500-
CENTRAL AND SOUTH CENTRAL TEXAS

CITY           SKY/WX    TMP DP  RH WIND       PRES   REMARKS
GEORGETOWN     PTSUNNY   77  73  88 CALM      29.99S
AUSTIN/BERGSTM CLOUDY    77  74  90 E3        29.98R
AUSTIN/MABRY   CLOUDY    78  74  87 CALM      29.99R
*AUSTIN/EXEC   CLOUDY    75  75 100 E5        29.99S FOG
*LAGO VISTA    CLOUDY    76  73  92 CALM      30.01R FOG
SAN MARCOS     CLOUDY    77  72  83 SE5       29.98R FOG
NEW BRAUNFELS  PTSUNNY   79  74  84 S8        29.96S
RANDOLPH AFB   CLOUDY    77  75  94 SE3       29.97S
PT SAN ANTONIO PTSUNNY   78  77  96 SE6       29.96R
SAN ANTONIO    CLOUDY    79  77  94 E6        29.98R FOG
STINSON FIELD  CLOUDY    78  76  93 SE6       29.95S
*PLEASANTON    CLOUDY    77  74  92 SE5       29.96S
*LA GRANGE     CLOUDY    77  77 100 CALM      29.96S FOG
*GIDDINGS      CLOUDY    75  74  95 CALM      30.02R FOG
*GONZALES      MOSUNNY   78  77  98 S6        29.96R
$$

TXZ163>164-176>182-195>201-210>213-226-227-235-171500-
SOUTHEAST TEXAS

CITY           SKY/WX    TMP DP  RH WIND       PRES   REMARKS
COLLEGE STN    CLOUDY    76  75  97 CALM      29.98R
*BRYAN         PTSUNNY  N/A N/A N/A CALM      29.97S
*CALDWELL      CLOUDY    75  75 100 CALM      30.01S FOG
*CROCKETT      FOG       77  77 100 CALM      30.02S VSB<1/4
*BRENHAM       CLOUDY    78  77  96 CALM      29.98S FOG
HUNTSVILLE     CLOUDY    76  74  93 CALM      29.99R
CONROE         FOG       74  74 100 CALM      29.99R VSB 1/4
HOUSTON BUSH   PTSUNNY   79  77  94 NE3       29.97R
HOUSTON HOBBY  PTSUNNY   81  77  88 CALM      29.96R
*HOUSTON SW AP PTSUNNY   78  78 100 CALM      29.97R
PEARLAND       PTSUNNY   82  77  84 CALM      29.97S HX  90
HOUSTON HOOKS  PTSUNNY   78  76  93 CALM      29.97S
ELLINGTON FLD  NOT AVBL
SUGAR LAND     PTSUNNY   81  76  84 CALM      29.97R
*HOUSTON EXEC  PTSUNNY   77  77 100 CALM      29.98R
*CLEVELAND MUN FOG       75  75  99 CALM      29.99R VSB 3/4
*WHARTON       MOSUNNY   77  76  97 CALM      29.97R
$$

TXZ214>216-236>238-171500-
THE UPPER TEXAS COAST

CITY           SKY/WX    TMP DP  RH WIND       PRES   REMARKS
*ORANGE        PTSUNNY   76  76 100 CALM      29.98S
PORT ARTHUR    MOSUNNY   81  76  84 NE3       29.96S
GALVESTON      PTSUNNY   81  75  82 S5        29.96S
ANGLETON       MOSUNNY   81  78  91 CALM      29.96R
*BAY CITY      MOSUNNY   77  77 100 CALM      29.96R
PALACIOS       MOSUNNY   82  78  88 SW3       29.95R HX  91
$$

TXZ229>234-239>247-171500-
TEXAS COASTAL BEND AND RIO GRANDE PLAINS

CITY           SKY/WX    TMP DP  RH WIND       PRES   REMARKS
VICTORIA       MOSUNNY   81  78  91 CALM      29.96R
*BEEVILLE      PTSUNNY   79  77  94 S8        29.95S
ROCKPORT       PTSUNNY  N/A N/A N/A S5        29.95R
*PORT ARANSAS  MOSUNNY   82  77  85 SW8       29.94S
*PORT LAVACA   MOSUNNY   79  77  94 CALM      29.95S
*INGLESIDE     PTSUNNY   83  76  80 SW10      29.94S HX  92
CORPUS CHRISTI CLOUDY    80  77  90 S9        29.95R
CORPUS NAS     CLOUDY    81  79  94 SW12      29.94S HX  90
*ROBSTOWN      PTSUNNY   79  77  94 S5        29.95R
ALICE          PTSUNNY   78  76  93 S7        29.95R
KINGSVILLE NAS PTSUNNY   81  79  94 S8        29.95R HX  90
COTULLA        CLOUDY   N/A N/A N/A SE5       29.96R
*FAITH RANCH   CLOUDY    75  75 100 CALM      29.96R
LAREDO         PTSUNNY   77  77 100 SE12      29.97R
$$

TXZ248>255-171500-
DEEP SOUTH TEXAS

CITY           SKY/WX    TMP DP  RH WIND       PRES   REMARKS
BROWNSVILLE    SUNNY     81  78  91 S3        29.94R
PORT ISABEL    SUNNY     81  77  88 S7        29.94R FOG
*SOUTH PADRE   SUNNY     82  77  83 CALM      29.95R HX  91
HARLINGEN      SUNNY     79  78  97 S7        29.94R
*HEBBRONVILLE    N/A     75  74  96 SE6       29.96S
MCALLEN        SUNNY     78  74  87 SE5       29.95R
*WESLACO       SUNNY     80  73  78 S6        29.94R
FALFURRIAS     MOSUNNY  -34 -35  91 S6        29.94S WCI -52
EDINBURG       SUNNY     79  76  90 S5        29.94S
*ZAPATA        SUNNY     77  75  93 SE3       29.94R
$$

TXZ213>215-236>238-242>244-246-247-251-254-255-171500-
CMAN STATIONS

STATION/POSITION TIME  TEMP    WIND        PRES    WAVE
                       AIR SEA DIR/SP/G            HT/PER
                 (UTC) (F)     (DEG/KT/KT) (MB)    (FT/S)
SABINE PASS      1300   79 83   40/  4/  5 1014.8
SEA RIM ST PARK  1300   77      50/  3/  3 1014.9
NORTH JETTY/GLS  1300   81 83  230/  5/  6   N/A
EAGLE POINT      1300   81 82  290/  2/  3 1014.5
MORGANS POINT    1300   79      60/  4/  6 1014.4
MISSION/ARANSAS  1300   71     240/  6     1015.0
PORT O`CONNOR    1300          190/  8/ 15   N/A
PORT ARANSAS     1300   81 83  220/  7/  8 1014.3
MALAQUITE BEACH  1300   80 84  200/ 10/ 12 1013.3
BAFFIN BAY       1300   80 81  190/  9/ 10 1014.0
PORT ISABEL      1300   81 83   CALM  /  1 1014.1
$$

GMZ080-GMZ150>470-171500-
OFFSHORE BUOY REPORTS

STATION/POSITION TIME  TEMP    WIND        PRES    WAVE
                       AIR SEA DIR/SP/G            HT/PER
                 (UTC) (F)     (DEG/KT/KT) (MB)    (FT/S)
20 E GALVESTON   1400   78 84  260/ 14/ 16 1014.3    2/ 6
90 E PT ARANSAS  1400   84 85  200/  6/  8 1014.8    2/ 7
35 NE PT MANSFLD 1300   83 84  190/ 12/ 14 1013.1    3/ 5
200 E PT ISABEL  1300   84 86  180/  8/ 10 1014.1    2/ 6
$$



USA.gov is the U.S. government's official web portal to all federal, state and local government web resources and services.